[[[{"header":{"parameterUnit":"kt","parameterCategory":2,"dx":1,"dy":1,"la1":30.253999710083008,"la2":30.299108505249023,"lo1":-89.0895004272461,"lo2":-89.04439544677734,"nx":28,"ny":28,"refTime":"2022-09-22T21:00:00:Z","depth":"0","parameterNumber":2,"parameterNumberName":"U-component_of_CURRENTS"},"data":[0.5159,0.5118,0.5171,0.5086,0.5121,0.5114,0.5199,0.5425,0.5777,0.6327,0.6857,0.7361,0.8134,0.8776,0.8993,0.9002,0.824,0.8006,0.7773,0.8604,0.8649,0.8692,0.8472,0.8242,0.824,0.6233,0.6217,0.6204,0.5284,0.5326,0.5353,0.5401,0.5391,0.5524,0.5714,0.5808,0.6076,0.6604,0.7023,0.7932,0.8632,0.9393,1.0107,0.9953,0.9602,0.9688,0.8807,0.8659,0.9987,0.9822,0.9875,0.9876,0.9876,0.9877,0.9877,0.9877,0.5522,0.5515,0.5594,0.5637,0.5699,0.578,0.583,0.6114,0.6359,0.6794,0.7213,0.7767,0.8638,0.9898,1.0253,1.0627,1.036,1.0456,1.0228,0.9754,0.9372,1.07,1.1128,1.1129,1.1131,1.1132,1.1134,0,0.5703,0.5766,0.5824,0.5875,0.5951,0.6031,0.6217,0.6308,0.6714,0.6975,0.7392,0.7748,0.8714,0.9343,1.022,1.0638,1.0213,1.0839,1.0418,0.9788,0.9106,0.8879,1.0176,1.0597,1.0596,1.0595,1.0595,1.0594,0.5897,0.5914,0.6065,0.609,0.6182,0.6286,0.6374,0.6668,0.6829,0.7296,0.7431,0.8005,0.8426,0.9372,0.9971,1.0645,1.0222,1.0789,1.0643,1.0152,0.9908,0.9365,0.9135,1.0582,1.0583,1.0584,1.0586,0,0.5991,0.6129,0.6182,0.638,0.6426,0.6471,0.6701,0.6805,0.7082,0.7331,0.7444,0.7901,0.8478,0.8968,0.9595,0.9827,1.0049,1.0474,1.0193,1.0217,1.0089,0.9831,0.9595,0.9356,1.0885,1.0891,1.0895,0,0.6194,0.6218,0.6418,0.6449,0.6504,0.6716,0.6823,0.7002,0.7279,0.7449,0.7759,0.7966,0.8461,0.8859,0.919,0.9738,0.976,1.0007,1.0067,0.9868,0.9853,0.9555,0.9286,1.0015,1.0011,1.0009,1.0006,0,0.6295,0.6443,0.6501,0.6557,0.677,0.6849,0.697,0.722,0.7334,0.7648,0.776,0.8153,0.8357,0.873,0.9125,0.9046,0.9685,0.9608,0.9899,0.9903,0.9849,0.9836,0.9792,1.0002,1.0001,1.0,0.9999,0,0.6477,0.6559,0.6636,0.6793,0.683,0.6904,0.7099,0.7217,0.7499,0.7607,0.7857,0.8016,0.8375,0.8369,0.8919,0.8762,0.8988,0.9167,0.9186,0.9279,0.9209,0.9326,0.9667,0.9253,0.9323,0.9317,0.9312,0,0.6542,0.6633,0.6761,0.6828,0.688,0.7041,0.7152,0.7306,0.7434,0.7586,0.7823,0.8,0.8078,0.8179,0.8393,0.8665,0.8865,0.8628,0.9017,0.9028,0.904,0.9385,0.922,0.9568,0.9236,0.9244,0.925,0,0.6583,0.6779,0.6774,0.6825,0.6985,0.7021,0.7163,0.7307,0.7385,0.7522,0.7659,0.7938,0.802,0.8122,0.8243,0.8425,0.8736,0.8442,0.8451,0.8539,0.9176,0.9264,0.9323,0.8779,0.8788,0.8795,0.919,0,0.6744,0.679,0.6812,0.692,0.6987,0.7028,0.7146,0.722,0.7269,0.734,0.7565,0.7705,0.7878,0.797,0.8016,0.8309,0.8305,0.8296,0.8189,0.8388,0.8533,0.8581,0.7996,0.7995,0.7993,0.7992,0,0,0.6739,0.6795,0.6876,0.6932,0.6976,0.7046,0.7088,0.7147,0.7224,0.7288,0.7262,0.7558,0.7639,0.7883,0.7968,0.8001,0.8099,0.7924,0.8283,0.8315,0.8345,0.8492,0.8539,0.799,0.7989,0.7989,0.7988,0,0.6791,0.6839,0.6867,0.6927,0.7001,0.7039,0.7062,0.7116,0.7147,0.7233,0.7305,0.7459,0.7554,0.7685,0.776,0.796,0.7978,0.8004,0.8055,0.8264,0.8297,0.8328,0.8478,0.8522,0.7985,0.7985,0.7985,0,0.6829,0.6882,0.6893,0.697,0.6995,0.7045,0.704,0.7074,0.712,0.7125,0.7188,0.729,0.7399,0.7536,0.76,0.7539,0.7853,0.7709,0.7721,0.7721,0.7933,0.7973,0.8007,0.755,0.7547,0.7546,0,0,0.6866,0.6902,0.697,0.6979,0.701,0.7036,0.7051,0.7061,0.7104,0.7116,0.7143,0.7219,0.7344,0.7374,0.7467,0.7561,0.7634,0.7651,0.7672,0.7688,0.7697,0.7912,0.7951,0.7538,0.7538,0.7538,0,0,0.6865,0.6942,0.6956,0.6976,0.7024,0.7045,0.7049,0.706,0.7099,0.7095,0.7111,0.7123,0.7266,0.7274,0.7175,0.7432,0.7358,0.7377,0.7383,0.7409,0.7429,0.7414,0.7115,0,0,0,0,0,0.6936,0.6943,0.6956,0.6965,0.6999,0.7048,0.7051,0.7046,0.7029,0.7045,0.7088,0.7053,0.7253,0.7163,0.7174,0.7264,0.7442,0.7459,0.7475,0.7512,0.754,0.7563,0,0,0,0,0,0,0.694,0.6951,0.6956,0.698,0.6989,0.7046,0.701,0.7008,0.7027,0.7024,0.7048,0.7054,0.7055,0.7156,0.7166,0.7253,0.7112,0.7449,0.7463,0.7476,0.7521,0.7544,0.7563,0,0,0,0,0,0.6943,0.6952,0.701,0.6979,0.6986,0.6992,0.7008,0.7007,0.7014,0.7037,0.704,0.7014,0.7054,0.7065,0.7162,0.725,0.7105,0.7108,0.7458,0.747,0.748,0.7532,0,0,0,0,0,0,0.6945,0.6934,0.701,0.7012,0.6972,0.6988,0.6991,0.7006,0.7026,0.703,0.7003,0.7001,0.7055,0.7063,0.7071,0.7252,0.7099,0.7103,0.7105,0.7467,0.7476,0.7484,0,0,0,0,0,0,0.693,0.6935,0.7011,0.7003,0.7003,0.6985,0.6988,0.7031,0.7028,0.6989,0.6988,0.7002,0.7066,0.7061,0.7068,0.7133,0.7094,0.7098,0.7101,0.7102,0.7474,0.7481,0,0,0,0,0,0,0.6932,0.6936,0.7001,0.7002,0.7002,0.7015,0.7024,0.7067,0.6993,0.6989,0.6991,0.699,0.7066,0.7071,0.7066,0.7129,0.7132,0.7094,0.7097,0.7099,0.71,0,0,0,0,0,0,0,0.6933,0.6907,0.701,0.7001,0.7001,0.7031,0.703,0.703,0.6993,0.6992,0.6991,0.6991,0.7073,0.7077,0.7081,0.7125,0,0,0.7094,0.7096,0,0,0,0,0,0,0,0,0.6904,0.6906,0.701,0.7011,0.7012,0.7031,0.703,0.703,0.6993,0.6992,0.6992,0.6991,0.7074,0.7078,0.7081,0,0,0,0,0,0,0,0,0,0,0,0,0,0,0,0.701,0.7011,0,0.7031,0.703,0.703,0.6993,0.6992,0.6992,0.6991,0.7075,0.7078,0.7081,0,0,0,0,0,0,0,0,0,0,0,0,0,0,0,0,0,0,0,0,0,0,0,0,0,0,0,0,0,0,0,0,0,0,0,0,0,0,0,0,0,0,0,0,0,0,0,0,0,0,0,0,0,0,0,0,0,0,0,0,0,0,0,0,0,0,0,0,0]}],[{"header":{"parameterUnit":"kt","parameterCategory":2,"dx":1,"dy":1,"la1":30.253999710083008,"la2":30.299108505249023,"lo1":-89.0895004272461,"lo2":-89.04439544677734,"nx":28,"ny":28,"refTime":"2022-09-22T21:00:00:Z","depth":"0","parameterNumber":3,"parameterNumberName":"V-component_of_CURRENTS"},"data":[0.1358,0.1553,0.1673,0.2073,0.2284,0.2613,0.2815,0.3145,0.3506,0.4076,0.4425,0.4648,0.3945,0.1233,-0.0735,-0.1206,-0.1765,-0.1868,-0.2174,-0.1649,-0.1578,-0.1511,-0.1553,-0.2205,-0.2207,-0.2917,-0.2926,-0.2933,0.1302,0.1445,0.1663,0.1956,0.2201,0.2319,0.2674,0.2891,0.323,0.365,0.3878,0.3874,0.3035,0.2137,0.0749,-0.0172,-0.0432,-0.0682,-0.0849,-0.0897,0.0029,0.0048,-0.0273,-0.0273,-0.0273,-0.0272,-0.0272,-0.0271,0.1227,0.1342,0.1537,0.1773,0.2001,0.2284,0.2485,0.2749,0.3041,0.339,0.3393,0.364,0.3069,0.2322,0.1684,0.0614,0.0688,0.0278,0.0048,-0.0005,-0.012,0.0934,0.079,0.079,0.0789,0.0789,0.0789,0,0.1174,0.1246,0.1405,0.1647,0.1846,0.2094,0.2344,0.2492,0.2729,0.2913,0.312,0.3188,0.2851,0.251,0.1897,0.152,0.0802,0.1031,0.0528,0.027,0.0133,-0.0052,0.1038,0.0991,0.0992,0.0992,0.0993,0.0993,0.1095,0.119,0.1435,0.1563,0.1669,0.1895,0.2075,0.2265,0.2434,0.2675,0.2788,0.2768,0.2821,0.2375,0.1908,0.1438,0.1069,0.1066,0.1023,0.0525,0.0207,0.011,0.0013,0.1,0.0999,0.0998,0.0998,0,0.1063,0.1155,0.1343,0.1558,0.164,0.1791,0.2056,0.2217,0.2342,0.2551,0.2597,0.2646,0.2529,0.2268,0.196,0.1666,0.1154,0.123,0.1278,0.1201,0.0531,0.0307,-0.0039,-0.0178,0.092,0.0918,0.0916,0,0.1031,0.1155,0.1309,0.1398,0.1615,0.1718,0.1942,0.2047,0.2208,0.2374,0.2351,0.2459,0.2245,0.2127,0.1853,0.156,0.1611,0.127,0.1181,0.1229,0.1224,0.0745,0.0507,0.1319,0.1321,0.1322,0.1324,0,0.094,0.1126,0.1276,0.1338,0.1534,0.1643,0.1754,0.1897,0.2017,0.2129,0.2207,0.2202,0.2214,0.2018,0.1783,0.1741,0.1569,0.1471,0.1219,0.1208,0.1169,0.1154,0.0773,0.1326,0.1326,0.1327,0.1328,0,0.0897,0.0992,0.1168,0.1358,0.1398,0.1509,0.1696,0.1805,0.1919,0.1951,0.2006,0.1976,0.2013,0.1874,0.1735,0.1759,0.1559,0.1435,0.1422,0.1319,0.1171,0.1009,0.1115,0.064,0.1184,0.1185,0.1185,0,0.0808,0.0954,0.0987,0.1166,0.1249,0.1283,0.1415,0.1502,0.1545,0.1647,0.1642,0.1732,0.1633,0.1662,0.1635,0.1536,0.1471,0.1523,0.1231,0.1222,0.1141,0.1265,0.131,0.1123,0.1191,0.119,0.119,0,0.071,0.081,0.0823,0.0897,0.0964,0.1024,0.1143,0.1247,0.1334,0.1354,0.1474,0.1549,0.1505,0.153,0.1494,0.1472,0.1463,0.1344,0.1338,0.122,0.1323,0.1272,0.1261,0.1409,0.1411,0.1413,0.1194,0,0.0688,0.073,0.076,0.0813,0.0865,0.0925,0.095,0.1006,0.1004,0.1031,0.1142,0.1143,0.1211,0.1221,0.1197,0.1297,0.1191,0.1146,0.1034,0.1171,0.1051,0.1049,0.1025,0.1022,0.1019,0.1016,0,0,0.0586,0.062,0.0574,0.0632,0.0676,0.0625,0.0709,0.0739,0.0776,0.0821,0.0765,0.0884,0.0872,0.1011,0.1074,0.1056,0.0974,0.1013,0.1117,0.1129,0.114,0.1033,0.1034,0.1011,0.101,0.1009,0.1008,0,0.0558,0.0515,0.0547,0.0574,0.0583,0.0593,0.0601,0.0612,0.0631,0.0714,0.0686,0.0736,0.0776,0.082,0.0841,0.1005,0.0857,0.0996,0.1125,0.1093,0.1109,0.1122,0.1021,0.1024,0.1001,0.1002,0.1002,0,0.0489,0.047,0.0469,0.047,0.0473,0.0534,0.0457,0.0487,0.0554,0.047,0.0559,0.0555,0.0564,0.0658,0.0685,0.063,0.0731,0.0726,0.0742,0.0759,0.0719,0.074,0.0757,0.0518,0.0517,0.0515,0,0,0.0467,0.0467,0.0447,0.0458,0.0459,0.0451,0.0466,0.0459,0.0472,0.0482,0.0473,0.048,0.0526,0.0533,0.056,0.0625,0.055,0.067,0.0693,0.0712,0.074,0.0706,0.0726,0.051,0.051,0.051,0,0,0.0461,0.0422,0.0393,0.0396,0.0415,0.042,0.0447,0.0429,0.0462,0.0447,0.0407,0.0404,0.0476,0.0443,0.0385,0.0523,0.0427,0.0438,0.0546,0.0574,0.0596,0.0625,0.029,0,0,0,0,0,0.0407,0.0424,0.0398,0.0392,0.0384,0.0426,0.0433,0.0422,0.0379,0.0419,0.0419,0.0347,0.0428,0.0376,0.0372,0.0439,0.0446,0.0458,0.0469,0.0624,0.0654,0.0679,0,0,0,0,0,0,0.0405,0.0397,0.0398,0.0392,0.0391,0.0424,0.0368,0.0368,0.0376,0.0373,0.0355,0.0347,0.0324,0.0371,0.037,0.0435,0.029,0.0451,0.0461,0.0469,0.0634,0.0659,0.0679,0,0,0,0,0,0.0403,0.0397,0.0372,0.0395,0.0393,0.0384,0.0366,0.0366,0.038,0.0347,0.034,0.0367,0.0326,0.0322,0.037,0.0438,0.0291,0.0291,0.0457,0.0465,0.0472,0.0646,0,0,0,0,0,0,0.0402,0.0422,0.0373,0.0375,0.037,0.0384,0.0381,0.0364,0.0353,0.0348,0.0355,0.0352,0.0328,0.0324,0.0321,0.0445,0.0291,0.0291,0.0291,0.0463,0.0469,0.0474,0,0,0,0,0,0,0.0425,0.0423,0.0374,0.0344,0.0342,0.0385,0.0382,0.0384,0.0351,0.0363,0.036,0.0353,0.0304,0.0327,0.0324,0.0333,0.0292,0.0291,0.0291,0.0291,0.0468,0.0472,0,0,0,0,0,0,0.0425,0.0423,0.0344,0.0343,0.0341,0.0363,0.0387,0.0365,0.0366,0.0363,0.036,0.0357,0.0305,0.0304,0.0326,0.0337,0.0334,0.0292,0.0292,0.0291,0.0291,0,0,0,0,0,0,0,0.0425,0.0423,0.0355,0.0342,0.034,0.0386,0.0387,0.0388,0.0365,0.0363,0.036,0.0358,0.0294,0.0293,0.0293,0.034,0,0,0.0292,0.0292,0,0,0,0,0,0,0,0,0.0425,0.0423,0.0355,0.0355,0.0355,0.0386,0.0387,0.0388,0.0365,0.0363,0.0361,0.0359,0.0293,0.0293,0.0293,0,0,0,0,0,0,0,0,0,0,0,0,0,0,0,0.0355,0.0355,0,0.0386,0.0387,0.0388,0.0365,0.0363,0.0361,0.036,0.0293,0.0293,0.0293,0,0,0,0,0,0,0,0,0,0,0,0,0,0,0,0,0,0,0,0,0,0,0,0,0,0,0,0,0,0,0,0,0,0,0,0,0,0,0,0,0,0,0,0,0,0,0,0,0,0,0,0,0,0,0,0,0,0,0,0,0,0,0,0,0,0,0,0,0]}]],[[{"header":{"parameterUnit":"kt","parameterCategory":2,"dx":1,"dy":1,"la1":30.253999710083008,"la2":30.299108505249023,"lo1":-89.0895004272461,"lo2":-89.04439544677734,"nx":28,"ny":28,"refTime":"2022-09-22T21:00:00:Z","depth":"2","parameterNumber":2,"parameterNumberName":"U-component_of_CURRENTS"},"data":[0.4415,0.4337,0.4341,0.4212,0.4231,0.4182,0.4208,0.4228,0.4217,0.4007,0.3822,0.4108,0.4077,0.3341,0.3331,0.316,0.3572,0.3049,0.4632,0.4422,0.4518,0.4816,0.4385,0,0,0,0,0,0.4533,0.4535,0.4548,0.4537,0.4504,0.4643,0.4747,0.4725,0.4816,0.4951,0.517,0.4505,0.442,0.4515,0.4146,0.4168,0.4046,0.4155,0.3901,0.4011,0.4111,0.3758,0.3019,0.3016,0.3012,0.3009,0,0,0.4738,0.4713,0.4733,0.4753,0.4811,0.4851,0.4866,0.5039,0.5203,0.5429,0.5782,0.5797,0.5691,0.5491,0.5492,0.5447,0.5818,0.5542,0.5573,0.562,0.5349,0.5199,0.5028,0.5037,0.5045,0.5052,0.5058,0,0.485,0.488,0.4896,0.4935,0.4988,0.5056,0.5187,0.5273,0.5545,0.5761,0.6051,0.6254,0.6525,0.6292,0.6467,0.6432,0.6443,0.6296,0.7372,0.5591,0.5441,0.5416,0.5445,0.536,0.5372,0.5381,0.5387,0.5391,0.4969,0.497,0.5057,0.5073,0.511,0.5199,0.5269,0.5491,0.5589,0.5995,0.6086,0.6493,0.6694,0.7076,0.6962,0.7097,0.7389,0.656,0.621,0.7026,0.7007,0.6983,0.696,0.5515,0.5499,0.5487,0.5476,0,0.5025,0.5078,0.5098,0.5199,0.5243,0.5281,0.5466,0.5535,0.5756,0.5944,0.6032,0.6362,0.6675,0.6911,0.7191,0.7118,0.7266,0.7294,0.6554,0.6461,0.6994,0.6966,0.7218,0.7214,0.7211,0.7209,0.7206,0,0.5114,0.513,0.52,0.5213,0.5275,0.5373,0.5474,0.5582,0.5776,0.5901,0.6085,0.6252,0.6468,0.6715,0.6826,0.6996,0.7142,0.6938,0.6943,0.6302,0.6231,0.6906,0.6875,0.7144,0.7142,0.7139,0.7137,0,0.5146,0.5201,0.5228,0.5254,0.5355,0.5413,0.549,0.5642,0.5739,0.5916,0.6039,0.6222,0.6378,0.653,0.6738,0.6654,0.7045,0.6924,0.6877,0.6867,0.6277,0.6204,0.7134,0.7134,0.7133,0.7132,0.7131,0,0.5194,0.5218,0.5251,0.5337,0.5361,0.5405,0.555,0.5618,0.5779,0.5856,0.5998,0.6079,0.627,0.6234,0.6525,0.6434,0.6549,0.6616,0.6629,0.6429,0.6347,0.5955,0.5985,0.6748,0.6744,0.674,0.6737,0,0.5223,0.5244,0.5278,0.5325,0.535,0.5439,0.5513,0.5603,0.5684,0.5782,0.5886,0.5983,0.5999,0.6068,0.6171,0.628,0.6406,0.6241,0.6467,0.6475,0.6306,0.6465,0.5743,0.5955,0.6686,0.6691,0.6695,0,0.523,0.5267,0.5274,0.5296,0.5378,0.54,0.5487,0.5569,0.5631,0.5702,0.5799,0.5899,0.595,0.598,0.6017,0.6103,0.6322,0.6108,0.6111,0.6248,0.6603,0.6419,0.6436,0.6319,0.6324,0.6328,0.6655,0,0.526,0.5276,0.5287,0.5318,0.5359,0.5392,0.5446,0.5496,0.5543,0.5578,0.5694,0.5735,0.5811,0.5833,0.5843,0.5992,0.6014,0.5962,0.5918,0.6025,0.6152,0.6184,0.5772,0.577,0.5768,0.5766,0,0,0.5275,0.5267,0.5284,0.5301,0.5335,0.5375,0.5402,0.5432,0.5472,0.5513,0.5511,0.5623,0.5637,0.5743,0.5788,0.5774,0.5851,0.5774,0.5951,0.5972,0.5991,0.6118,0.6151,0.5763,0.5762,0.5761,0.5761,0,0.5263,0.528,0.5276,0.5302,0.5343,0.536,0.5378,0.5402,0.5432,0.5479,0.5499,0.5565,0.5593,0.5634,0.5657,0.5743,0.5774,0.5753,0.5829,0.5931,0.5954,0.5975,0.6104,0.6135,0.5756,0.5756,0.5756,0,0.5267,0.5274,0.5272,0.5291,0.5311,0.5333,0.5335,0.5368,0.5399,0.5389,0.5436,0.5468,0.5486,0.5547,0.5573,0.5541,0.5707,0.5608,0.5618,0.5625,0.5727,0.5753,0.5776,0.5485,0.5484,0.5484,0,0,0.5267,0.5264,0.5282,0.529,0.5305,0.5323,0.5338,0.5354,0.5376,0.5389,0.54,0.5423,0.5465,0.5483,0.5501,0.5541,0.558,0.5579,0.5592,0.5602,0.5616,0.572,0.5744,0.5482,0.5482,0.5482,0,0,0.5264,0.5266,0.5277,0.5279,0.5305,0.5311,0.5331,0.5342,0.5369,0.5384,0.5381,0.5387,0.5452,0.5431,0.5405,0.5496,0.5438,0.5443,0.5523,0.5538,0.5551,0.5566,0.5375,0,0,0,0,0,0.5264,0.5263,0.5273,0.5276,0.5285,0.5304,0.5307,0.5327,0.5336,0.5352,0.5376,0.536,0.5424,0.5401,0.5401,0.546,0.5455,0.546,0.5464,0.5576,0.5592,0.5606,0,0,0,0,0,0,0.5265,0.5266,0.5274,0.5276,0.528,0.5302,0.5299,0.5304,0.5335,0.5339,0.5356,0.5359,0.5353,0.5399,0.54,0.5456,0.5375,0.5457,0.5461,0.5465,0.5581,0.5595,0.5607,0,0,0,0,0,0.5266,0.5267,0.5275,0.5277,0.5279,0.5307,0.53,0.5304,0.5329,0.5333,0.5337,0.535,0.5351,0.5355,0.5399,0.5457,0.5374,0.5374,0.546,0.5463,0.5466,0.5588,0,0,0,0,0,0,0.5267,0.5262,0.5277,0.5279,0.5287,0.5307,0.5309,0.5303,0.5321,0.5326,0.5324,0.5326,0.535,0.5353,0.5356,0.546,0.5373,0.5374,0.5374,0.5462,0.5464,0.5467,0,0,0,0,0,0,0.5262,0.5263,0.5277,0.5289,0.5293,0.5308,0.531,0.5312,0.5321,0.531,0.5314,0.5325,0.5356,0.5352,0.5354,0.5356,0.5372,0.5373,0.5373,0.5373,0.5464,0.5466,0,0,0,0,0,0,0.5263,0.5264,0.5288,0.5291,0.5294,0.5316,0.531,0.5321,0.5326,0.5309,0.5329,0.533,0.5355,0.5357,0.5353,0.5353,0.5355,0.5372,0.5373,0.5373,0.5373,0,0,0,0,0,0,0,0.5264,0.5251,0.527,0.5292,0.5295,0.5302,0.5301,0.5301,0.5326,0.5327,0.5329,0.533,0.5369,0.537,0.5371,0.5352,0,0,0.5372,0.5373,0,0,0,0,0,0,0,0,0.5252,0.5252,0.5271,0.5272,0.5272,0.5302,0.5301,0.5301,0.5326,0.5327,0.5328,0.5329,0.537,0.537,0.5371,0,0,0,0,0,0,0,0,0,0,0,0,0,0,0,0.5271,0.5271,0,0.5302,0.5301,0.5301,0.5327,0.5327,0.5328,0.5329,0.537,0.537,0.537,0,0,0,0,0,0,0,0,0,0,0,0,0,0,0,0,0,0,0,0,0,0,0,0,0,0,0,0,0,0,0,0,0,0,0,0,0,0,0,0,0,0,0,0,0,0,0,0,0,0,0,0,0,0,0,0,0,0,0,0,0,0,0,0,0,0,0,0,0]}],[{"header":{"parameterUnit":"kt","parameterCategory":2,"dx":1,"dy":1,"la1":30.253999710083008,"la2":30.299108505249023,"lo1":-89.0895004272461,"lo2":-89.04439544677734,"nx":28,"ny":28,"refTime":"2022-09-22T21:00:00:Z","depth":"2","parameterNumber":3,"parameterNumberName":"V-component_of_CURRENTS"},"data":[0.0643,0.077,0.0841,0.1148,0.1288,0.1578,0.1773,0.221,0.2401,0.2719,0.2607,0.2613,0.1396,0.0625,-0.0075,-0.0577,-0.0651,-0.0631,-0.0446,-0.0466,-0.0456,-0.1011,-0.0992,0,0,0,0,0,0.0585,0.0661,0.0794,0.097,0.1152,0.1193,0.1483,0.1733,0.2155,0.2388,0.2704,0.1943,0.1457,0.0657,-0.0345,-0.0848,-0.0936,-0.0964,-0.1053,-0.1051,-0.105,-0.104,-0.1065,-0.1066,-0.1066,-0.1067,0,0,0.0494,0.0563,0.0649,0.0782,0.0914,0.1121,0.1284,0.1497,0.177,0.2134,0.2109,0.2146,0.1398,0.059,0.0077,-0.0571,-0.0591,-0.0903,-0.0906,-0.0909,-0.0889,-0.0813,-0.0875,-0.0874,-0.0873,-0.0873,-0.0872,0,0.0418,0.0432,0.051,0.0641,0.074,0.0883,0.1018,0.1136,0.1228,0.1387,0.16,0.1676,0.1252,0.0787,0.0168,-0.0164,-0.0684,-0.0755,-0.0672,-0.0995,-0.092,-0.0974,-0.097,-0.101,-0.101,-0.101,-0.101,-0.101,0.0309,0.0358,0.0452,0.0521,0.0557,0.0663,0.075,0.0786,0.0879,0.0997,0.1077,0.1005,0.105,0.0622,0.0048,-0.0393,-0.049,-0.0745,-0.0916,-0.0801,-0.0856,-0.0854,-0.0852,-0.101,-0.101,-0.101,-0.101,0,0.0256,0.0272,0.0367,0.0433,0.0464,0.0539,0.0642,0.071,0.0704,0.0804,0.08,0.0704,0.0569,0.0243,-0.0108,-0.0388,-0.0656,-0.0748,-0.0728,-0.0781,-0.0865,-0.086,-0.0879,-0.0877,-0.0876,-0.0874,-0.0873,0,0.0179,0.0243,0.0279,0.0323,0.0427,0.0423,0.0514,0.0499,0.0508,0.0583,0.0403,0.045,0.008,-0.0048,-0.033,-0.0559,-0.0586,-0.0841,-0.0898,-0.0953,-0.0951,-0.1011,-0.1015,-0.0977,-0.0976,-0.0976,-0.0976,0,0.0116,0.0169,0.0238,0.0252,0.0296,0.0326,0.0344,0.0313,0.0342,0.0267,0.0291,0.0109,0.0055,-0.0187,-0.0429,-0.0493,-0.0656,-0.0801,-0.0897,-0.0893,-0.1012,-0.1015,-0.0976,-0.0976,-0.0976,-0.0976,-0.0975,0,0.0049,0.0087,0.0151,0.0221,0.0228,0.024,0.0262,0.0256,0.0187,0.0144,0.0056,-0.005,-0.0176,-0.0303,-0.0538,-0.0503,-0.0673,-0.0805,-0.0812,-0.0807,-0.0896,-0.0949,-0.0925,-0.0899,-0.0898,-0.0898,-0.0897,0,0.0014,0.0061,0.0042,0.0095,0.012,0.0067,0.0073,0.0029,-0.0026,-0.0048,-0.0201,-0.0261,-0.0396,-0.0432,-0.0537,-0.0698,-0.0771,-0.074,-0.0948,-0.0952,-0.0869,-0.0827,-0.0888,-0.0916,-0.0889,-0.089,-0.0891,0,-0.0029,-0.0022,-0.0022,0.0009,-0.0043,-0.0049,-0.0068,-0.0109,-0.0098,-0.0207,-0.0204,-0.0385,-0.0448,-0.0528,-0.0648,-0.0733,-0.0761,-0.0814,-0.0822,-0.0788,-0.0889,-0.0824,-0.0823,-0.0852,-0.0853,-0.0853,-0.0885,0,-0.0045,-0.0044,-0.0044,-0.0071,-0.0091,-0.0102,-0.0171,-0.0196,-0.0244,-0.03,-0.0378,-0.0525,-0.0627,-0.0691,-0.0772,-0.0834,-0.0847,-0.0932,-0.0971,-0.095,-0.0967,-0.0971,-0.0963,-0.0966,-0.0968,-0.097,0,0,-0.0076,-0.0084,-0.0147,-0.015,-0.0162,-0.0252,-0.0243,-0.0296,-0.0391,-0.041,-0.0448,-0.0628,-0.0747,-0.0838,-0.0842,-0.0917,-0.0949,-0.0909,-0.0967,-0.0965,-0.0965,-0.0979,-0.0981,-0.0974,-0.0975,-0.0976,-0.0976,0,-0.0094,-0.0138,-0.0138,-0.0171,-0.0231,-0.0279,-0.0283,-0.0362,-0.0395,-0.0453,-0.0545,-0.0632,-0.077,-0.086,-0.0927,-0.0939,-0.101,-0.0978,-0.0894,-0.0983,-0.0979,-0.0976,-0.0988,-0.0988,-0.0982,-0.0982,-0.0981,0,-0.0124,-0.0167,-0.018,-0.0248,-0.0295,-0.0314,-0.0379,-0.0417,-0.0433,-0.0557,-0.0602,-0.0695,-0.0829,-0.0904,-0.0949,-0.0976,-0.1061,-0.1057,-0.1048,-0.1024,-0.1119,-0.1114,-0.111,-0.1158,-0.1158,-0.1158,0,0,-0.0138,-0.0156,-0.0238,-0.0261,-0.0285,-0.0361,-0.0391,-0.0431,-0.0507,-0.0536,-0.0621,-0.0724,-0.0816,-0.0873,-0.0964,-0.104,-0.1088,-0.107,-0.1062,-0.1054,-0.1026,-0.1117,-0.1113,-0.1157,-0.1157,-0.1157,0,0,-0.0151,-0.0228,-0.0256,-0.0289,-0.0343,-0.0431,-0.0446,-0.0485,-0.0554,-0.0563,-0.0675,-0.0705,-0.0783,-0.0869,-0.0843,-0.0979,-0.1024,-0.1032,-0.0899,-0.089,-0.0883,-0.0819,-0.092,0,0,0,0,0,-0.0211,-0.0217,-0.0241,-0.0258,-0.0359,-0.0417,-0.0432,-0.0494,-0.0513,-0.0518,-0.0604,-0.0665,-0.0879,-0.0857,-0.0887,-0.0894,-0.1145,-0.1147,-0.1149,-0.0997,-0.0987,-0.0978,0,0,0,0,0,0,-0.0218,-0.0236,-0.0242,-0.0328,-0.0352,-0.0418,-0.0461,-0.0478,-0.0513,-0.0519,-0.0645,-0.0669,-0.0748,-0.0849,-0.0875,-0.0879,-0.0912,-0.1146,-0.1148,-0.1149,-0.0994,-0.0985,-0.0978,0,0,0,0,0,-0.0224,-0.0239,-0.0381,-0.0329,-0.035,-0.0436,-0.046,-0.0475,-0.05,-0.0629,-0.0651,-0.0544,-0.0745,-0.0774,-0.0865,-0.0864,-0.0895,-0.0904,-0.1147,-0.1148,-0.115,-0.0989,0,0,0,0,0,0,-0.0228,-0.0251,-0.0387,-0.0396,-0.0328,-0.0434,-0.045,-0.0472,-0.0609,-0.063,-0.0534,-0.0538,-0.0744,-0.0766,-0.0787,-0.0853,-0.0881,-0.0891,-0.0896,-0.1148,-0.1149,-0.115,0,0,0,0,0,0,-0.0244,-0.0258,-0.0392,-0.0387,-0.0396,-0.0431,-0.0446,-0.0539,-0.0612,-0.0507,-0.0514,-0.0534,-0.0735,-0.0761,-0.0778,-0.092,-0.0871,-0.088,-0.0886,-0.089,-0.1149,-0.115,0,0,0,0,0,0,-0.0252,-0.0264,-0.0385,-0.0392,-0.04,-0.0509,-0.0518,-0.0631,-0.0566,-0.0502,-0.0567,-0.0568,-0.0731,-0.0748,-0.0771,-0.0905,-0.0916,-0.0871,-0.0877,-0.0881,-0.0884,0,0,0,0,0,0,0,-0.0258,-0.0156,-0.0333,-0.0396,-0.0403,-0.0485,-0.0487,-0.049,-0.0566,-0.0567,-0.0567,-0.0567,-0.082,-0.083,-0.084,-0.0893,0,0,-0.087,-0.0875,0,0,0,0,0,0,0,0,-0.0152,-0.0155,-0.0334,-0.0336,-0.0338,-0.0485,-0.0487,-0.0489,-0.0566,-0.0567,-0.0567,-0.0567,-0.0823,-0.0831,-0.0839,0,0,0,0,0,0,0,0,0,0,0,0,0,0,0,-0.0334,-0.0336,0,-0.0486,-0.0487,-0.0489,-0.0566,-0.0567,-0.0567,-0.0567,-0.0825,-0.0832,-0.0838,0,0,0,0,0,0,0,0,0,0,0,0,0,0,0,0,0,0,0,0,0,0,0,0,0,0,0,0,0,0,0,0,0,0,0,0,0,0,0,0,0,0,0,0,0,0,0,0,0,0,0,0,0,0,0,0,0,0,0,0,0,0,0,0,0,0,0,0,0]}]],[[{"header":{"parameterUnit":"kt","parameterCategory":2,"dx":1,"dy":1,"la1":30.253999710083008,"la2":30.299108505249023,"lo1":-89.0895004272461,"lo2":-89.04439544677734,"nx":28,"ny":28,"refTime":"2022-09-22T21:00:00:Z","depth":"4","parameterNumber":2,"parameterNumberName":"U-component_of_CURRENTS"},"data":[0.0788,0.0886,0.0898,0.1048,0.1164,0.1341,0.1443,0.1481,0.1463,0.1688,0.1626,0.1912,0.1817,0.1962,0.1785,0.1795,0.1928,0.1906,0.1902,0.2212,0.2238,0.2262,0.2263,0,0,0,0,0,0.083,0.0842,0.0981,0.1178,0.142,0.1573,0.1742,0.1795,0.1999,0.1892,0.2095,0.1969,0.1916,0.1904,0.18,0.1944,0.2048,0.1819,0.2074,0.2228,0.2258,0.2249,0,0,0,0,0,0,0.0861,0.0922,0.1108,0.1318,0.1595,0.1671,0.1791,0.1869,0.2028,0.2306,0.2191,0.2255,0.2429,0.231,0.2106,0.2058,0.2091,0.2108,0.2142,0.217,0.2139,0.2087,0.1743,0,0,0,0,0,0.0923,0.1045,0.1156,0.1446,0.1645,0.1836,0.2109,0.2143,0.2433,0.2717,0.2642,0.2654,0.255,0.2512,0.2412,0.2232,0.2563,0.2378,0.2397,0.2523,0.251,0.2439,0.2456,0.2369,0.2372,0.2375,0.2376,0,0.1038,0.1089,0.1406,0.153,0.1673,0.1982,0.2138,0.2501,0.2601,0.2868,0.285,0.2994,0.3063,0.2715,0.2744,0.2564,0.2494,0.2453,0.2588,0.2558,0.2477,0.2487,0.2496,0.24,0.2398,0.2396,0.2394,0,0.1079,0.1228,0.1348,0.161,0.1735,0.1914,0.2289,0.241,0.2763,0.2941,0.3097,0.33,0.3271,0.3269,0.3152,0.3046,0.2828,0.2676,0.2929,0.2847,0.2539,0.2538,0.2439,0.243,0.2423,0.2417,0.2411,0,0.1201,0.1273,0.1513,0.1562,0.1757,0.19,0.2162,0.2376,0.2651,0.2797,0.3129,0.3194,0.3428,0.3359,0.3265,0.3054,0.3157,0.2885,0.2791,0.3054,0.3051,0.2978,0.2965,0.3094,0.3095,0.3096,0.3097,0,0.123,0.138,0.1492,0.1535,0.1702,0.183,0.2006,0.2257,0.2433,0.2804,0.2955,0.3182,0.3373,0.333,0.3279,0.3327,0.3152,0.3158,0.2844,0.2824,0.2978,0.2964,0.3098,0.3098,0.3098,0.3098,0.3099,0,0.1273,0.1338,0.1479,0.1599,0.1661,0.1765,0.1996,0.2158,0.2417,0.2611,0.2865,0.3009,0.3211,0.3218,0.3254,0.3284,0.321,0.3128,0.3119,0.2854,0.2698,0.2751,0.2944,0.2944,0.2943,0.2943,0.2943,0,0.1238,0.135,0.1406,0.1524,0.1607,0.1708,0.1864,0.2013,0.2217,0.2433,0.26,0.2854,0.2931,0.3102,0.3129,0.3093,0.3094,0.3108,0.2923,0.2917,0.2657,0.2779,0.3056,0.294,0.294,0.294,0.294,0,0.1202,0.1332,0.1364,0.1424,0.1541,0.1583,0.175,0.1925,0.2068,0.2303,0.2507,0.2731,0.286,0.292,0.2975,0.2995,0.3072,0.2976,0.297,0.2876,0.3023,0.2799,0.2778,0.3046,0.3048,0.305,0.2938,0,0.1233,0.1307,0.1329,0.1435,0.1498,0.1553,0.168,0.1817,0.199,0.2104,0.235,0.2465,0.2653,0.2686,0.2733,0.2858,0.2811,0.2748,0.2643,0.2805,0.2735,0.2738,0.2654,0.265,0.2647,0.2645,0,0,0.1206,0.127,0.132,0.137,0.141,0.1489,0.1569,0.168,0.1833,0.1937,0.2031,0.2297,0.2338,0.2471,0.26,0.2589,0.2566,0.2612,0.275,0.2763,0.2774,0.2714,0.272,0.264,0.2639,0.2638,0.2637,0,0.1197,0.1268,0.1307,0.1359,0.1412,0.1453,0.1499,0.1611,0.1743,0.1918,0.1964,0.2105,0.2262,0.231,0.235,0.2541,0.2438,0.2589,0.2753,0.2726,0.2742,0.2756,0.2702,0.2709,0.263,0.2631,0.2631,0,0.122,0.1216,0.124,0.1303,0.1363,0.1433,0.1471,0.1529,0.1625,0.1651,0.1877,0.194,0.1992,0.2134,0.2202,0.2164,0.2323,0.2302,0.2319,0.233,0.2294,0.2316,0.2335,0.2073,0.2071,0.2069,0,0,0.1214,0.1234,0.1281,0.13,0.135,0.142,0.1456,0.1511,0.1599,0.1682,0.1776,0.1872,0.1946,0.2015,0.2055,0.2161,0.2095,0.2235,0.2261,0.2283,0.2305,0.2276,0.2299,0.2063,0.2062,0.2062,0,0,0.1199,0.1222,0.1273,0.1306,0.1359,0.1381,0.1434,0.1501,0.1659,0.1698,0.174,0.1761,0.1909,0.1907,0.1821,0.2043,0.1937,0.1953,0.2044,0.2075,0.2101,0.2117,0.174,0,0,0,0,0,0.1177,0.1196,0.1241,0.1245,0.1313,0.1342,0.1358,0.1452,0.1527,0.1614,0.1729,0.1679,0.1903,0.1826,0.1825,0.1915,0.1973,0.1989,0.2004,0.2143,0.2177,0.2206,0,0,0,0,0,0,0.1178,0.1186,0.1236,0.1245,0.1257,0.1342,0.1388,0.1417,0.1524,0.1552,0.1663,0.1676,0.1675,0.1821,0.1821,0.191,0.174,0.198,0.1993,0.2005,0.2154,0.2183,0.2207,0,0,0,0,0,0.1178,0.1184,0.1286,0.1247,0.1258,0.1351,0.1395,0.142,0.1574,0.1541,0.1569,0.1652,0.167,0.1679,0.1821,0.1912,0.174,0.174,0.1988,0.1999,0.2008,0.2168,0,0,0,0,0,0,0.1178,0.1248,0.129,0.1293,0.1284,0.1358,0.1382,0.1422,0.1566,0.1585,0.1515,0.1531,0.1666,0.1673,0.1679,0.1919,0.1739,0.174,0.174,0.1996,0.2005,0.2012,0,0,0,0,0,0,0.1241,0.1252,0.1293,0.1335,0.1346,0.1362,0.1383,0.1367,0.1566,0.154,0.1553,0.152,0.1628,0.1669,0.1674,0.1647,0.1739,0.1739,0.1739,0.174,0.2003,0.201,0,0,0,0,0,0,0.1246,0.1256,0.1338,0.1346,0.1357,0.143,0.1351,0.1423,0.1593,0.1534,0.1606,0.1612,0.1617,0.1628,0.1669,0.1639,0.1645,0.1739,0.1739,0.1739,0.1739,0,0,0,0,0,0,0,0.125,0.1179,0.1232,0.1355,0.1365,0.1319,0.1324,0.1328,0.1594,0.1599,0.1605,0.161,0.1737,0.1738,0.1738,0.1633,0,0,0.1739,0.1739,0,0,0,0,0,0,0,0,0.1176,0.1178,0.1232,0.123,0.1229,0.132,0.1324,0.1327,0.1595,0.1599,0.1604,0.1608,0.1738,0.1738,0.1738,0,0,0,0,0,0,0,0,0,0,0,0,0,0,0,0.1231,0.123,0,0.132,0.1323,0.1326,0.1596,0.1599,0.1603,0.1606,0.1738,0.1738,0.1738,0,0,0,0,0,0,0,0,0,0,0,0,0,0,0,0,0,0,0,0,0,0,0,0,0,0,0,0,0,0,0,0,0,0,0,0,0,0,0,0,0,0,0,0,0,0,0,0,0,0,0,0,0,0,0,0,0,0,0,0,0,0,0,0,0,0,0,0,0]}],[{"header":{"parameterUnit":"kt","parameterCategory":2,"dx":1,"dy":1,"la1":30.253999710083008,"la2":30.299108505249023,"lo1":-89.0895004272461,"lo2":-89.04439544677734,"nx":28,"ny":28,"refTime":"2022-09-22T21:00:00:Z","depth":"4","parameterNumber":3,"parameterNumberName":"V-component_of_CURRENTS"},"data":[0.0539,0.0606,0.0615,0.074,0.0823,0.0939,0.0982,0.0935,0.0887,0.0843,0.0589,0.0546,0.0091,0.0239,-0.0343,-0.0418,-0.0525,-0.0927,-0.093,-0.1115,-0.1119,-0.1123,-0.1086,0,0,0,0,0,0.0548,0.0572,0.0639,0.0728,0.0866,0.0937,0.0992,0.0975,0.0968,0.0868,0.0815,0.0532,0.01,-0.0147,-0.0359,-0.0489,-0.0827,-0.074,-0.0887,-0.1118,-0.1122,-0.1085,0,0,0,0,0,0,0.0544,0.0574,0.0649,0.0729,0.0856,0.0911,0.0912,0.0904,0.0909,0.0812,0.0724,0.0374,0.0181,-0.0215,-0.0482,-0.0703,-0.0778,-0.082,-0.0841,-0.0848,-0.0773,-0.0637,-0.059,0,0,0,0,0,0.054,0.0584,0.0609,0.0724,0.0783,0.0844,0.0892,0.0904,0.086,0.085,0.0653,0.0389,0.0104,-0.0305,-0.0529,-0.0816,-0.1043,-0.1075,-0.108,-0.1142,-0.1069,-0.1073,-0.1067,-0.114,-0.1141,-0.1141,-0.1142,0,0.0551,0.0572,0.0637,0.0679,0.0684,0.0728,0.0755,0.0726,0.0733,0.0609,0.0587,0.0335,0.0125,-0.0303,-0.0636,-0.0988,-0.1037,-0.1086,-0.1151,-0.1075,-0.1081,-0.1073,-0.1065,-0.1146,-0.1145,-0.1145,-0.1145,0,0.0552,0.0561,0.0579,0.0579,0.0594,0.0613,0.0638,0.0627,0.0569,0.0532,0.0496,0.0221,-0.0061,-0.0341,-0.0697,-0.0834,-0.1075,-0.1115,-0.1054,-0.1063,-0.1077,-0.1068,-0.1152,-0.115,-0.1149,-0.1148,-0.1147,0,0.0536,0.0535,0.0536,0.0542,0.0566,0.0505,0.0518,0.0454,0.0383,0.0356,0.0153,0.0048,-0.0286,-0.048,-0.0722,-0.0942,-0.0984,-0.1097,-0.1111,-0.1121,-0.1111,-0.1137,-0.1128,-0.121,-0.121,-0.121,-0.121,0,0.051,0.0485,0.0499,0.0487,0.0437,0.0432,0.0411,0.0312,0.0296,0.014,0.0094,-0.0166,-0.0275,-0.0501,-0.0767,-0.0788,-0.1033,-0.107,-0.1094,-0.1088,-0.1132,-0.1123,-0.1209,-0.1209,-0.1209,-0.1209,-0.1209,0,0.0455,0.0453,0.0454,0.0416,0.0405,0.039,0.0331,0.0291,0.0156,0.0075,-0.0086,-0.0223,-0.0431,-0.0511,-0.0792,-0.076,-0.0876,-0.0988,-0.0992,-0.0951,-0.094,-0.0908,-0.1002,-0.1001,-0.0999,-0.0998,-0.0997,0,0.0436,0.0433,0.0401,0.0382,0.0364,0.0304,0.027,0.0193,0.0097,-0.0005,-0.0179,-0.0308,-0.0438,-0.053,-0.0662,-0.0838,-0.0907,-0.0857,-0.0975,-0.0977,-0.0885,-0.0963,-0.0943,-0.0977,-0.0979,-0.0981,-0.0982,0,0.0417,0.0377,0.0378,0.0364,0.0305,0.0277,0.0231,0.0152,0.0116,-0.004,-0.0128,-0.0358,-0.0459,-0.0541,-0.0666,-0.077,-0.0872,-0.0825,-0.0829,-0.0794,-0.1003,-0.0944,-0.0949,-0.093,-0.0932,-0.0935,-0.0969,0,0.0369,0.036,0.0358,0.0324,0.0285,0.0263,0.0194,0.0137,0.0063,-0.0017,-0.0175,-0.034,-0.0494,-0.0565,-0.065,-0.0777,-0.0769,-0.0798,-0.0766,-0.0836,-0.0841,-0.0852,-0.0726,-0.0726,-0.0726,-0.0726,0,0,0.0355,0.0354,0.0314,0.0297,0.0274,0.0204,0.0182,0.0124,-0.0001,-0.005,-0.0092,-0.0355,-0.0451,-0.0588,-0.0649,-0.0694,-0.0722,-0.0675,-0.0809,-0.0818,-0.0827,-0.0834,-0.0844,-0.0727,-0.0727,-0.0727,-0.0727,0,0.0342,0.0332,0.0331,0.029,0.0237,0.0191,0.0179,0.0083,0.0037,-0.0072,-0.0156,-0.0288,-0.0432,-0.0523,-0.0585,-0.0686,-0.0689,-0.0721,-0.0729,-0.0807,-0.0816,-0.0824,-0.0833,-0.0842,-0.0727,-0.0727,-0.0727,0,0.032,0.0305,0.0303,0.0255,0.0208,0.0171,0.0121,0.0077,0.0041,-0.0058,-0.015,-0.0257,-0.0366,-0.0475,-0.0526,-0.0515,-0.0658,-0.0625,-0.0628,-0.0618,-0.0697,-0.0708,-0.0718,-0.0583,-0.0582,-0.0581,0,0,0.0309,0.0311,0.0251,0.0247,0.0224,0.0144,0.0107,0.0069,-0.0014,-0.0055,-0.0139,-0.0235,-0.0332,-0.0383,-0.0466,-0.0561,-0.0578,-0.0603,-0.061,-0.0615,-0.0608,-0.0688,-0.0699,-0.0578,-0.0578,-0.0578,0,0,0.0296,0.0262,0.0244,0.0242,0.0182,0.01,0.0076,0.0028,-0.0068,-0.0071,-0.0153,-0.0176,-0.0282,-0.0328,-0.0275,-0.045,-0.0429,-0.0442,-0.0402,-0.0411,-0.0418,-0.0384,-0.0271,0,0,0,0,0,0.0263,0.0272,0.0257,0.025,0.0178,0.0112,0.0094,0.0034,0.0015,-0.0014,-0.0105,-0.0106,-0.0327,-0.0281,-0.0301,-0.0336,-0.0531,-0.054,-0.0547,-0.052,-0.0529,-0.0537,0,0,0,0,0,0,0.026,0.0254,0.0256,0.0186,0.0168,0.0112,0.0088,0.0069,0.0016,0.001,-0.0094,-0.0109,-0.0153,-0.0272,-0.029,-0.0323,-0.0265,-0.0535,-0.0542,-0.0548,-0.0523,-0.0531,-0.0537,0,0,0,0,0,0.0257,0.0252,0.0167,0.0182,0.0167,0.0088,0.0088,0.0072,0.0017,-0.0055,-0.0073,-0.0023,-0.0152,-0.0172,-0.0283,-0.0314,-0.0253,-0.0259,-0.0539,-0.0545,-0.055,-0.0527,0,0,0,0,0,0,0.0255,0.0211,0.0161,0.0152,0.0193,0.0088,0.0075,0.0075,-0.0047,-0.0063,0.0015,0.0012,-0.0152,-0.0167,-0.0182,-0.0309,-0.0243,-0.0249,-0.0254,-0.0543,-0.0548,-0.0552,0,0,0,0,0,0,0.0213,0.0204,0.0156,0.0173,0.0164,0.0088,0.0077,0.0008,-0.0047,0.0028,0.0022,0.0015,-0.0121,-0.0164,-0.0176,-0.0284,-0.0235,-0.0241,-0.0246,-0.0249,-0.0547,-0.055,0,0,0,0,0,0,0.0207,0.0199,0.0174,0.0168,0.016,0.0044,0.0023,-0.0047,-0.0031,0.0033,-0.003,-0.0029,-0.0116,-0.013,-0.0171,-0.0274,-0.0281,-0.0235,-0.024,-0.0243,-0.0245,0,0,0,0,0,0,0,0.0202,0.0288,0.0226,0.0164,0.0157,0.0067,0.0063,0.006,-0.0031,-0.003,-0.003,-0.0029,-0.0198,-0.0205,-0.0212,-0.0266,0,0,-0.0234,-0.0238,0,0,0,0,0,0,0,0,0.0288,0.0288,0.0226,0.0225,0.0223,0.0066,0.0064,0.0061,-0.0031,-0.003,-0.003,-0.003,-0.02,-0.0206,-0.0212,0,0,0,0,0,0,0,0,0,0,0,0,0,0,0,0.0226,0.0225,0,0.0066,0.0064,0.0061,-0.0031,-0.003,-0.003,-0.003,-0.0202,-0.0206,-0.0211,0,0,0,0,0,0,0,0,0,0,0,0,0,0,0,0,0,0,0,0,0,0,0,0,0,0,0,0,0,0,0,0,0,0,0,0,0,0,0,0,0,0,0,0,0,0,0,0,0,0,0,0,0,0,0,0,0,0,0,0,0,0,0,0,0,0,0,0,0]}]]]